Location: Bernadets
(43.3537°N, 0.3167°E)
Time: 07:10:53
(UTC+00:00)

IRS-1C Rocket - Pass Details

Date: 24 October 2021
Orbit: 801 x 805 km, 98.9° (Epoch: 02 December)

Event Time Altitude Azimuth Distance (km) Brightness Sun altitude
Exits shadow 18:45:20 16° 148° (SSE) 1,974 5.8 -19.5°
Maximum altitude 18:49:27 62° 72° (ENE) 903 4.0 -20.3°
Drops below altitude 10° 18:54:40 10° 352° (N) 2,392 6.7 -21.2°
Sets 18:57:01 0° 350° (N) 3,327 7.5 -21.7°
